This demonstration page uses our WeatherBlox Daily Observations layout. Learn more.

36.17497, -115.13722

Hourly Observations for December 6, 2019

Temp ( °F °C ) Dew Point ( °F °C ) Humidity (%) Winds ( mph kmh ) Pressure ( in mb ) Visibility ( mi km ) Precip ( " mm )
12:53 am 00:53 Clear 50 10 43 6.1 77 77 SW 3 6 30.24 1024 10 16.0934 0 0
1:53 am 01:53 Clear 50 10 43 6.1 77 77 SW 3 6 30.24 1024 10 16.0934 0 0
2:53 am 02:53 Clear 46 7.8 42 5.6 86 86 Calm 30.25 1024 10 16.0934 0 0
3:53 am 03:53 Clear 47 8.3 42 5.6 83 83 NNW 5 7 30.26 1025 10 16.0934 0 0
4:53 am 04:53 Clear 47 8.3 42 5.6 83 83 WNW 6 9 30.27 1025 10 16.0934 0 0
5:53 am 05:53 Clear 47 8.3 42 5.6 83 83 WNW 3 6 30.28 1025 10 16.0934 0 0
6:53 am 06:53 Sunny 45 7.2 41 5 86 86 WNW 5 7 30.29 1026 10 16.0934 0 0
7:53 am 07:53 Sunny 48 8.9 42 5.6 80 80 Calm 30.3 1026 10 16.0934 0 0
8:53 am 08:53 Sunny 54 12.2 43 6.1 67 67 Calm 30.32 1027 10 16.0934 0 0
9:53 am 09:53 Sunny 56 13.3 44 6.7 65 65 SE 5 7 30.32 1027 10 16.0934 0 0
10:53 am 10:53 Sunny 57 13.9 43 6.1 60 60 SE 6 9 30.29 1026 10 16.0934 0 0
11:53 am 11:53 Sunny 58 14.4 43 6.1 58 58 S 7 11 30.26 1025 10 16.0934 0 0
12:53 pm 12:53 Sunny 60 15.6 41 5 50 50 ESE 8 13 30.23 1024 10 16.0934 0 0
1:53 pm 13:53 Sunny 60 15.6 42 5.6 52 52 ESE 5 7 30.22 1024 10 16.0934 0 0
2:53 pm 14:53 Sunny 60 15.6 41 5 50 50 ESE 5 7 30.22 1023 10 16.0934 0 0
3:53 pm 15:53 Sunny 59 15 43 6.1 56 56 SSE 5 7 30.23 1024 10 16.0934 0 0
4:53 pm 16:53 Clear 57 13.9 44 6.7 62 62 SSE 3 6 30.24 1024 10 16.0934 0 0
5:53 pm 17:53 Clear 56 13.3 44 6.7 65 65 S 3 6 30.25 1024 10 16.0934 0 0
6:53 pm 18:53 Clear 56 13.3 44 6.7 65 65 Calm 30.24 1024 10 16.0934 0 0
7:53 pm 19:53 Clear 55 12.8 44 6.7 67 67 Calm 30.24 1024 10 16.0934 0 0
8:53 pm 20:53 Mostly Clear 54 12.2 44 6.7 69 69 Calm 30.24 1024 10 16.0934 0 0
9:53 pm 21:53 Clear 52 11.1 44 6.7 75 75 Calm 30.23 1024 10 16.0934 0 0
10:53 pm 22:53 Mostly Cloudy 50 10 44 6.7 80 80 WNW 3 6 30.23 1024 10 16.0934 0 0
11:53 pm 23:53 Mostly Clear 51 10.6 44 6.7 77 77 Calm 30.22 1023 10 16.0934 0 0

Powered by AerisWeather